Home   Weather   Lubbock   Past weeks

Flag for USA Past Weather in Lubbock, Texas, USA — Yesterday and Last 2 Weeks

Now
41 °F

Drizzle. Fog.


Feels Like: 36 °F
Forecast: 39 / 43 °F
Wind: 8 mph from Northeast

Location: Lubbock International Airport

Current Time: Dec 3, 2016 at 3:57:12 pm

Latest Report: Dec 3, 2016 at 2:53 pm


Visibility: 2 mi

Pressure: 29.97 "Hg (26.59 "Hg at 976m altitude)

Humidity: 93%

Dew Point: 39 °F

Location of LubbockLocation

Past Weather in Lubbock — Graph

°F

Lubbock Temperature Yesterday

Maximum temperature yesterday: 46 °F (at 12:53 pm)
Minimum temperature yesterday: 34 °F (at 12:53 am)
Average temperature yesterday: 40 °F

High & Low Weather Summary for the Past Weeks

 TemperatureHumidityPressure
High74 °F (Nov 21, 1:53 pm)100% (Nov 26, 10:53 pm)30.64 "Hg (Nov 26, 10:53 pm)
Low21 °F (Nov 30, 6:53 am)12% (Nov 27, 3:53 pm)29.40 "Hg (Nov 28, 2:53 pm)
Average48 °F51%30.02 "Hg
* Reported Nov 18 2:53 pm — Dec 3 2:53 pm, Lubbock, Weather by CustomWeather, © 2016

Note: Actual official high and low records may vary slightly from our data, if they occured in-between our weather recording intervals... More about our weather records

Advertising

Lubbock Weather History for the Previous 24 Hours

Scroll right to see more
 ConditionsComfort  
Time TempWeatherWind HumidityBarometerVisibility
2:53 pm
Sat, Dec 3
41 °FDrizzle. Fog.8 mph93%29.97 "Hg2 mi
1:53 pm41 °FDrizzle. Fog.6 mph93%30.01 "Hg2 mi
12:53 pm40 °FDrizzle. Fog.8 mph93%30.03 "Hg6 mi
11:53 am40 °FLow clouds.10 mph93%30.06 "Hg9 mi
11:00 am40 °FLight rain. Fog.10 mph93%30.11 "Hg6 mi
9:53 am40 °FLight rain. Mostly cloudy.10 mph97%30.09 "Hg9 mi
8:53 am40 °FLight rain. Mostly cloudy.9 mph93%30.08 "Hg7 mi
8:04 am40 °FLight rain. Mostly cloudy.13 mph97%30.08 "Hg10 mi
7:53 am40 °FCloudy.8 mph97%30.08 "Hg10 mi
6:53 am41 °FMostly cloudy.12 mph93%30.06 "Hg7 mi
5:53 am40 °FLight rain. Fog.10 mph97%30.06 "Hg6 mi
4:57 am41 °FLight rain. Fog.10 mph93%30.06 "Hg5 mi
3:53 am41 °FHeavy rain. Fog.8 mph96%30.07 "Hg3 mi
2:53 am40 °FDrizzle. Fog.10 mph97%30.05 "Hg6 mi
1:53 am39 °FLight rain. Fog.13 mph96%30.07 "Hg5 mi
12:53 am39 °FDrizzle. Fog.18 mph96%30.06 "Hg5 mi
11:53 pm
Fri, Dec 2
39 °FDrizzle. Low clouds.16 mph96%30.07 "Hg7 mi
10:53 pm39 °FLight rain. Fog.18 mph96%30.06 "Hg4 mi
9:53 pm39 °FLight rain. Fog.17 mph96%30.07 "Hg4 mi
8:53 pm39 °FLight rain. Fog.15 mph96%30.08 "Hg4 mi
7:53 pm39 °FLight rain. Fog.13 mph93%30.09 "Hg3 mi
6:53 pm39 °FLight rain. Fog.16 mph93%30.08 "Hg4 mi
5:53 pm38 °FLight rain. Fog.14 mph97%30.06 "Hg3 mi
4:53 pm39 °FRain. Fog.9 mph93%30.05 "Hg2 mi
3:53 pm39 °FOvercast.10 mph89%30.03 "Hg7 mi
Weather by CustomWeather, © 2016

See weather overviewHow to use our weather pages